www.pogodaiklimat.ru

Погода и климат >> Архив погоды >> Индонезия >> Рутенг


ПОГОДА в Рутенге

  • Прогноз погоды в Рутенге
  • Монитор погоды в Рутенге

АРХИВ ПОГОДЫ в Рутенге

Время (UTC), дата Ветер
(напр.,м/с)
 
Видим.   Явления Облачность Т
(С)
Тd
(С)
f
(%)
Тe
(С)
Тes
(С)
Комфортность P
(гПа)
Po
(гПа)
Тmin
(С)
Tmax
(С)
R
(мм)
R24
(мм)
S
(см)
06 9.06 СВ 4 14 км 8/6 400 м
[Cu med, cong Ci fib]
+24.8 +20.5 77 +31 +34 очень
душно
1010.6 887.7
09 9.06 СВ 2 10 км {дождь} 9/6 400 м
[Cu med, cong As op Ci fib]
+21.0 +19.4 91 +27 +27 душно 1010.9 888.0 1
00 10.06 ЮЗ 2 16 км 1/1 480 м
[Cu hum Ci fib]
+20.4 +17.1 81 +24 +28 комфорт 1010.5 887.6 +14.8
03 10.06 З 2 16 км 3/3 480 м
[Cu hum Ci fib]
+25.2 +18.5 66 +30 +41 душно 1010.7 887.8
06 10.06 СВ 2 14 км 8/6 400 м
[Cu med, cong Ci fib]
+24.6 +20.2 77 +30 +34 очень
душно
1009.2 886.4
09 10.06 З 2 10 км 9/6 400 м
[Cu med, cong As op Ci fib]
+21.4 +19.5 89 +26 +27 душно 1009.3 886.4
12 10.06 штиль 0 8000 м 8/6 400 м
[Cu med, cong As op Ci fib]
+20.2 +19.6 96 +24 +24 комфорт 1010.9 888.0 +25.6
00 11.06 штиль 0 16 км 5/4 400 м
[Cu hum Ac trans Ci fib]
+20.6 +18.1 86 +24 +27 комфорт 1012.5 889.7 +16.0
03 11.06 С 3 16 км 4/4 400 м
[Cu hum Ci fib]
+25.2 +18.9 68 +30 +38 душно 1013.0 890.1
06 11.06 ЮЗ 2 12 км 9/8 400 м
[Cu med, cong As op Ci fib]
+24.4 +20.4 78 +30 +32 очень
душно
1010.8 887.9
09 11.06 СВ 3 2000 м слаб. дождь 10/8 360 м
[Cu med, cong As op Ci fib]
+21.2 +20.6 96 +26 +26 душно 1011.3 888.2 4
12 11.06 В 2 10 км {дождь} 6/5 360 м
[Cu med, cong As op Ci fib]
+19.2 +18.8 98 +22 +22 комфорт 1012.2 889.3 +26.4 4
00 12.06 Ю 2 16 км 3/1 450 м
[Cu hum Ac trans Ci fib]
+22.0 +15.3 66 +26 +29 душно 1012.3 889.5 +15.6 4
03 12.06 Ю 2 16 км 5/3 450 м
[Cu hum Ac trans Ci fib]
+26.4 +19.6 66 +32 +42 очень
душно
1012.1 889.2
06 12.06 В 3 10 км 10/8 400 м
[Cu med, cong As op Ci fib]
+24.6 +20.6 78 +31 +32 очень
душно
1010.6 887.7
09 12.06 СВ 2 10 км 10/8 360 м
[Cu med, cong As op Ci fib]
+22.2 +20.7 91 +29 +29 очень
душно
1010.0 871.0
12 12.06 ЮЗ 1 8000 м 9/5 180 м
[Cu med, cong As op Ci fib]
+20.6 +19.6 94 +26 +26 душно 1011.6 888.7 +27.0
00 13.06 ЮЗ 1 16 км 10/6 400 м
[Cu med, cong Ac trans Ci fib]
+21.0 +19.0 88 +27 +27 душно 1012.3 889.5 +16.0
03 13.06 штиль 0 8000 м осадки на расстоянии 10/8 400 м
[Cu med, cong Ac As Ci fib]
+21.0 +19.4 91 +25 +27 комфорт 1012.2 889.3 2
06 13.06 С 3 10 км в посл. час дождь 8/8 400 м
[Cu med, cong As op Ci fib]
+23.4 +31.3 100 +33 +35 очень
душно
1009.9 887.0 3
09 13.06 штиль 0 5000 м слаб. ливневой дождь, в посл. час гроза 10/8 360 м
[Cu med, cong Ac As Ci fib]
+21.0 +20.4 96 +26 +26 душно 1010.4 887.5 5
12 13.06 штиль 0 8000 м {дождь} 3/3 400 м
[Cu hum Ci fib]
+19.4 +19.0 98 +22 +22 комфорт 1011.5 888.6 +24.2 1
00 14.06 ЮЗ 2 16 км 1/1 480 м
[Cu hum Ci fib]
+21.6 +17.3 77 +26 +29 душно 1011.5 888.6 +16.6 9
03 14.06 С 4 16 км 3/3 480 м
[Cu hum Ci fib]
+25.0 +19.0 69 +30 +37 душно 1011.3 888.5
06 14.06 З 3 16 км 5/5 450 м
[Cu med, cong As op Ci fib]
+23.2 +20.4 84 +30 +36 очень
душно
1008.8 886.0
09 14.06 З 2 14 км 8/6 400 м
[Cu med, cong As op Ci fib]
+22.0 +20.1 89 +28 +28 душно 1009.3 886.5
12 14.06 З 2 5000 м 10/8 360 м
[Cu med, cong As op Ci fib]
+19.2 +18.9 98 +22 +22 комфорт 1011.5 888.6 +26.0
00 15.06 штиль 0 16 км 1/1 480 м
[Cu hum Ci fib]
+19.2 +13.6 70 +20 +25 1012.2 889.4 +11.8
03 15.06 ЮВ 1 16 км 1/1 480 м
[Cu hum Ci fib]
+24.6 +16.0 59 +28 +43 душно 1011.9 889.0
06 15.06 СВ 4 16 км 3/3 480 м
[Cu hum Ci fib]
+25.2 +18.1 65 +30 +36 душно 1009.9 887.0
09 15.06 С 3 12 км 3/3 480 м
[Cu hum Ci fib]
+21.6 +19.4 87 +27 +27 душно 1009.5 886.6
12 15.06 ЮВ 2 10 км 3/3 480 м
[Cu hum Ci fib]
+17.4 +16.5 94 +18 +18 1011.3 888.4 +26.2
00 16.06 штиль 0 16 км 1/1 480 м
[Cu hum Ci fib]
+15.8 +11.9 78 +16 +20 1012.1 889.3 +9.2

 

Местоположение метеостанции Рутенг (Индонезия): широта -8.63 долгота 120.45 высота над уровнем моря 1170 м.

В архиве по умолчанию представлена погода в Рутенге за последнюю неделю. Архивные данные за месяц целиком и за предыдущие месяцы, начиная с января 2011 года, Вы можете получить, выбрав интересующий диапазон дат из раскрывающегося списка и нажав кнопку "Ввод!".


*Определитесь, кто Вы:
робот инопланетянин человек

Внимание! Время в таблицах - всемирное. Для получения местного времени необходимо прибавить поправку, которая равна 8 ч.

Смотрите также архив погоды в соседних городах и на ближайших метеорологических станциях:

Погода в Аэропорту Умбу Механг Кунда (Индонезия) (116 км)
Погода в Биме (Индонезия) (193 км)
Погода в Маумере (Индонезия) (198 км)
Погода в Сабу (Индонезия) (257 км)
Погода в Ларантуке (Индонезия) (280 км)
Погода в Сумбава-Бесаре (Индонезия) (335 км)
Погода на Роти (Индонезия) (370 км)
Погода в Купанге (Индонезия) (391 км)
Погода в Аэропорту Султана Хасануддин (Индонезия) (408 км)
Погода в Уджангпанданге (Индонезия) (408 км)

Пояснения к столбцам:

Ветер - указаны скорость ветра в м/с - средняя за 10 мин, порывы в срок и между сроками (в фигурных скобках) и направление, откуда дует ветер: С - северный, СВ - северо-восточный, В - восточный, ЮВ - юго-восточный, Ю - южный, ЮЗ - юго-западный, З - западный, СЗ - северо-западный.
Видимость - горизонтальная дальность видимости в метрах или километрах. При видимости от 1 до 10 км при отсутствии осадков обычно наблюдается дымка, при ухудшении видимости до 1 км и менее - туман. В сухую погоду видимость может ухудшаться дымом, пылью или мглою.
Явления - указаны атмосферные явления, наблюдавшиеся в срок или в последний час перед сроком; фигурными скобками обозначены явления, наблюдавшиеся между сроками (за 1-3 часа до срока); квадратными скобками обозначены град или гололедные отложения с указанием их диаметра в мм.
Облачность - указаны через наклонную черту общая и нижняя облачность в баллах и высота нижней границы облаков в метрах; квадратными скобками обозначены формы облаков: Ci - перистые, Cs - перисто-слоистые, Cc - перисто-кучевые, Ac - высококучевые, As - высокослоистые, Sc - слоисто-кучевые, Ns - слоисто-дождевые, Cu - кучевые, Cb - кучево-дождевые. Подробнее классификацию облаков см. в Атласе облаков (PDF).
T - Температура воздуха - температура, измеренная на высоте 2 м над землей.
Td - Температура точки росы - температура, при понижении до которой содержащийся в воздухе водяной пар достигнет насыщения.
f - Относительная влажность воздуха - влажноcть воздуха, измеренная на высоте 2 м над землей.
Te - Эффективная температура - температура, которую ощущает одетый по сезону человек в тени. Характеристика душности погоды. При расчете учитывается влияние влажности воздуха и скорости ветра на теплоощущения человека.
Tes - Эффективная температура на солнце - температура, которую ощущает человек, с поправкой на солнечный нагрев. Характеристика знойности погоды. Зависит от высоты солнца над горизонтом, облачности и скорости ветра. Ночью, в пасмурную погоду, а также при ветре 12 м/с и более поправка равна нулю.
P - Атмосферное давление - приведенное к уровню моря атмосферное давление.
Po - Атмосферное давление - измеренное на уровне метеостанции атмосферное давление.
Tmin - Минимальная температура - минимум температуры воздуха на высоте 2 м над землей.
Tmax - Максимальная температура - максимум температуры воздуха на высоте 2 м над землей.
R - Количество осадков - Количество выпавших осадков за период времени, мм. При наведении курсора мыши на число - период времени, за который выпало указанное количество осадков.
R24 - Количество осадков - Количество выпавших осадков за 24 часа, мм.
S - Снежный покров - Высота снежного покрова, см. При наведении курсора мыши на число - состояние снежного покрова и степень покрытия местности в баллах.